Flag for Germany Weather past 2 weeks in Paderborn, North Rhine-Westphalia, Germany

Now
52 °F

Light rain. Partly sunny.


Feels Like: 47 °F
Forecast: 40 / 48 °F
Wind: 16 mph from South

Location: Paderborn / Lippstadt

Current Time: Oct 21, 2014 at 5:48:43 PM

Latest Report: Oct 21, 2014 at 5:20 PM


Visibility: N/A

Pressure: 29.47 "Hg

Humidity: 88%

Dew point: 48 °F

Location of PaderbornLocation

Historic Weather in Paderborn — Graph

°F

Paderborn temperature yesterday

Maximum temperature yesterday: 59 °F (at 1:20 PM)
Minimum temperature yesterday: 52 °F (at 7:50 PM)
Average temperature yesterday: 56 °F

Past Weeks' High & Low Weather Summary

 TemperatureHumidityPressure
High72 °F (Oct 19, 1:20 PM)100% (Oct 7, 12:20 PM)30.15 "Hg (Oct 7, 12:20 PM)
Low48 °F (Oct 16, 6:50 AM)52% (Oct 14, 2:20 PM)29.50 "Hg (Oct 21, 4:20 PM)
Average57 °F80%29.84 "Hg
* Reported Oct 6 4:20 PM — Oct 21 4:50 PM, Paderborn, Weather by CustomWeather, © 2014

Note: Actual official high and low records may vary slightly from our data, if they occured in-between our weather recording intervals... More about our weather records

Advertising

Paderborn weather history for previous 24 hours

 ConditionsComfort  
Time TempWeatherWind HumidityBarometerVisibility
4:50 PM
Oct 21
54 °FLight rain. Broken clouds.18 mph77%29.50 "HgN/A
4:20 PM54 °FPartly sunny.24 mph77%29.50 "HgN/A
3:50 PM54 °FLight rain. Broken clouds.18 mph77%29.53 "HgN/A
3:20 PM54 °FLight rain. Broken clouds.20 mph77%29.56 "Hg5 mi
2:50 PM54 °FLight rain. Broken clouds.17 mph72%29.56 "Hg6 mi
2:20 PM54 °FLight rain. Broken clouds.24 mph72%29.59 "Hg6 mi
1:50 PM54 °FLight rain. Partly sunny.17 mph72%29.62 "HgN/A
1:20 PM54 °FLight rain. Partly sunny.16 mph72%29.65 "HgN/A
12:50 PM54 °FLight rain. Partly sunny.16 mph72%29.68 "HgN/A
12:20 PM54 °FLight rain. Partly sunny.15 mph72%29.68 "HgN/A
11:50 AM54 °FBroken clouds.14 mph72%29.71 "HgN/A
11:20 AM54 °FBroken clouds.14 mph72%29.71 "HgN/A
10:50 AM54 °FBroken clouds.18 mph77%29.74 "HgN/A
10:20 AM52 °FLight rain. Broken clouds.13 mph82%29.77 "Hg5 mi
9:50 AM52 °FLight rain. Broken clouds.14 mph88%29.77 "Hg5 mi
9:20 AM52 °FBroken clouds.12 mph82%29.77 "HgN/A
8:50 AM52 °FPartly cloudy.10 mph82%29.77 "HgN/A
8:20 AM52 °FPartly cloudy.12 mph82%29.80 "HgN/A
7:50 AM50 °FPassing clouds.10 mph88%29.80 "HgN/A
7:20 AM52 °FPassing clouds.12 mph82%29.80 "HgN/A
6:50 AM52 °FPartly cloudy.10 mph82%29.83 "HgN/A
6:20 AM52 °FPartly cloudy.10 mph82%29.83 "HgN/A
5:50 AM52 °FPassing clouds.10 mph82%29.83 "HgN/A
5:20 AM52 °FCool.12 mph82%29.86 "HgN/A
4:50 AM52 °FPassing clouds.9 mph82%29.86 "HgN/A
4:20 AM52 °FPassing clouds.9 mph88%29.89 "HgN/A
3:50 AM50 °FPassing clouds.9 mph94%29.89 "HgN/A
3:20 AM52 °FPassing clouds.9 mph94%29.89 "HgN/A
12:20 AM52 °FClear.10 mph94%29.92 "Hg10 mi
11:50 PM
Oct 20
52 °FClear.8 mph94%29.92 "Hg10 mi
11:20 PM52 °FClear.10 mph88%29.92 "Hg10 mi
10:50 PM54 °FClear.14 mph88%29.95 "Hg10 mi
10:20 PM54 °FClear.14 mph82%29.95 "Hg10 mi
9:50 PM54 °FClear.12 mph82%29.95 "Hg10 mi
9:20 PM54 °FClear.13 mph82%29.95 "Hg10 mi
8:50 PM54 °FClear.12 mph82%29.95 "Hg10 mi
8:20 PM54 °FClear.8 mph82%29.95 "Hg10 mi
7:50 PM52 °FClear.8 mph88%29.95 "Hg10 mi
7:20 PM54 °FSunny.9 mph82%29.95 "Hg10 mi
6:50 PM54 °FSunny.8 mph82%29.95 "Hg10 mi
6:20 PM54 °FSunny.8 mph82%29.95 "Hg10 mi
5:50 PM55 °FSunny.10 mph72%29.98 "Hg10 mi
5:20 PM57 °FPassing clouds.10 mph67%29.98 "HgN/A
Weather by CustomWeather, © 2014

See weather overviewHow to use our weather pages